Regional Weather Roundup
Issued by NWS Midland/Odessa, TX

Skip options and go directly to product.
Home | Oldest Version | Next Version | Current Version | All | Text Only | Save Text | Print | Product List | Glossary On

Skip product version selection by date and time.   
850
ASUS44 KMAF 251310
RWRMAF
MIDLAND AREA WEATHER ROUNDUP
NATIONAL WEATHER SERVICE MIDLAND TX
800 AM CDT MON MAY 25 2015

...IN SOUTHWEST TEXAS AND SOUTHEAST NEW MEXICO...

CITY           SKY/WX    TMP DP  RH WIND       PRES   REMARKS
ALPINE         SUNNY     65  29  25 NE3       30.03R
ANDREWS        TSTM      55  54  97 E13       29.89F
ARTESIA        PTSUNNY   63  36  36 W5        29.90S
BIG SPRING     CLOUDY    61  56  84 S10G23    29.82F THUNDER
CARLSBAD       PTSUNNY   66  38  35 W9        29.86F
DRYDEN           N/A     73  69  87 S9        29.84R
FORT STOCKTON  SUNNY     63  53  70 W13       29.87R
GUAD PASS      SUNNY     58  28  32 SW13      30.00S
HOBBS          MOSUNNY   59  39  47 NW12      29.86F
MARFA          SUNNY     57  34  41 W7        30.03R
MIDLAND AIRPK  TSTM      58  52  81 NW21G28   29.92R
MIDLAND INTL   TSTM      55  49  80 N25G35    29.89R
ODESSA           N/A    N/A N/A N/A MISG      29.88R
PECOS          SUNNY     60  54  79 CALM      29.85S
PRESIDIO       FAIR      73  26  17 W12       29.94R
SEMINOLE       LGT RAIN  61  46  58 NE3       29.93R
SNYDER         RAIN      67  57  70 SW10      29.82F
WINK           PTSUNNY   62  56  80 CALM      29.85R
$$
...OTHER STATIONS IN TEXAS...

CITY           SKY/WX    TMP DP  RH WIND       PRES   REMARKS
ABILENE        CLOUDY    71  67  87 S18G26    29.84S
AMARILLO       MOSUNNY   56  47  71 SW7       29.87R
AUSTIN         CLOUDY    74  72  93 S13       29.91R
BROWNSVILLE    CLOUDY    80  76  87 SE14      29.87R
CORPUS CHRISTI MOSUNNY   79  74  84 SE15      29.87R
DALLAS FTW     DRIZZLE   68  68 100 S9        29.90S FOG
DEL RIO        CLOUDY    74  71  91 E12       29.82R FOG
EL PASO        SUNNY     61  33  35 S9        29.96S
HOUSTON INT    MOSUNNY   75  72  90 SE9       29.96S
LUBBOCK        LGT RAIN  59  51  75 SW16G22   29.91R
SAN ANGELO     LGT RAIN  72  67  84 SE15      29.80F
SAN ANTONIO    CLOUDY    75  71  87 SE14      29.90R
WACO           LGT RAIN  72  70  93 S10       29.91R
WICHITA FALLS  NOT AVBL
$$
...OTHER LOCATIONS IN NEW MEXICO...

CITY           SKY/WX    TMP DP  RH WIND       PRES   REMARKS
ALAMAGORDO     SUNNY     50  32  50 CALM      29.97R
ALBUQUERQUE    MOSUNNY   50  43  77 S6        30.01R
CANNON AFB     MOSUNNY   52  44  73 W5        29.89F
CLOVIS         PTSUNNY   50  43  76 CALM      29.90F
HOLLOMAN AFB   NOT AVBL
ROSWELL        MOSUNNY   58  41  53 NW6       29.89F
RUIDOSO        SUNNY     48  32  53 W6        30.06S
SANTA FE       SUNNY     44  39  82 CALM      30.00R
TRUTH OR CONSE SUNNY     54  35  48 NW6       30.00R
TUCUMCARI      SUNNY     55  46  71 W7        29.85F
$$

USA.gov is the U.S. government's official web portal to all federal, state and local government web resources and services.